Погода в Ягодном

Россия / Хабаровский край     51˚04′07″N   138˚25′55″E
темп.,
°C
ветер,
м/с
пор.,
м/с
влажн.,
%
обл.,
%
осадки,
мм/ч
давл.,
гПа
погр.,
м
18 января, пн
пн1801:00−23˚ююз1296100 0.1 101840
04:00−24˚ююз1297100 0.1 101831
07:00−24˚ююз1297100 0.1 101724
10:00−24˚ююз1295100 0.1 101798
13:00−21˚зюз1286100 0.0 1016528
16:00−22˚зюз1292100 0.1 1015371
19:00−26˚ю129776 0.0 101619
22:00−27˚ю129477 0.0 101619
19 января, вт
вт1901:00−28˚ю229433 0.0 101620
04:00−29˚ююз229519 0.0 101527
07:00−30˚ююз23949 0.0 101645
10:00−28˚ююз249645 0.0 1017172
13:00−24˚юз4992100 0.0 1017547
16:00−23˚юз61090100 0.1 1016794
19:00−27˚ююз41192100 0.0 1019512
22:00−27˚ююз41291100 0.1 1019477
20 января, ср
ср2001:00−28˚ююз389399 0.0 1020255
04:00−29˚ююз379469 0.0 1021203
07:00−30˚ююз369354 0.0 1023201
10:00−28˚ююз489158 0.0 1024372
13:00−24˚юз4108460 0.0 1023613
16:00−23˚юз4108673 0.0 1023606
19:00−26˚ююз389285 0.0 1024249
22:00−25˚ю359184 0.0 1022146
21 января, чт
чт2101:00−22˚ююз3686100 0.0 1020239
04:00−20˚ююз3596100 0.3 1018235
07:00−20˚ююз1298100 0.3 101684
10:00−19˚зюз1297100 0.7 1016175
13:00−18˚зюз3790100 0.3 1016752
16:00−18˚зюз4892100 0.4 1016785
19:00−22˚юз2399100 0.1 101888
22:00−23˚ю2298100 0.2 101956
22 января, пт
пт2201:00−23˚ююз2298100 0.2 101935
04:00−23˚ююз2299100 0.3 101967
07:00−23˚ююз2299100 0.1 102057
10:00−23˚юз2398100 0.1 1021211
13:00−21˚зюз2491100 0.1 1020610
16:00−22˚юз3593100 0.1 1021523
19:00−25˚ююз2399100 0.1 102371
22:00−25˚ююз3498100 0.1 1024133